Weather History for KAST - August, 2014

Change the Weather History Date:

Monday, August 18, 2014

  Actual Average Record
Temperature  
Mean Temperature 65 °F 61 °F  
Max Temperature 74 °F 69 °F 82 °F (2009)
Min Temperature 56 °F 53 °F 40 °F (1973)
Degree Days  
Heating Degree Days 0 4  
Month to date heating degree days 28 72  
Since 1 June heating degree days 313 464  
Since 1 July heating degree days 133 222  
Cooling Degree Days 0 0  
Month to date cooling degree days 2 0  
Year to date cooling degree days 21 3  
Since 1 June cooling degree days 10 3  
Growing Degree Days 14 (Base 50)    
Moisture  
Dew Point 57 °F    
Average Humidity 82    
Maximum Humidity 100    
Minimum Humidity 64    
Precipitation  
Precipitation 0.00 in 0.04 in 0.61 in (1926)
Month to date precipitation 0.56 0.54  
Year to date precipitation 42.17 37.48  
Sea Level Pressure  
Sea Level Pressure 29.95 in    
Wind  
Wind Speed 7 mph (West)    
Max Wind Speed 18 mph    
Max Gust Speed 23 mph    
Visibility 10 miles    
Events      
T = Trace of Precipitation, MM = Missing Value Source: NWS Daily Summary

Daily Weather History Graph

Daily Weather History Graph

Search for Another Location

Airport or City:

Trip Planner

Search our weather history database for the weather conditions in past years. The results will help you decide how hot, cold, wet, or windy it might be!

Date:

Astronomy

Aug. 18, 2014 Rise Set
Actual Time 6:18 AM PDT 8:19 PM PDT
Civil Twilight 5:46 AM PDT 8:51 PM PDT
Nautical Twilight 5:06 AM PDT 9:31 PM PDT
Astronomical Twilight 4:22 AM PDT 10:14 PM PDT
Moon 12:25 AM PDT (8/18) 3:33 PM PDT (8/18)
Length of Visible Light 15h 05m
Length of Day
14h 00m
Last Quarter, 37% of the Moon is Illuminated
Aug 18
Last Quarter
Aug 25
New
Sep 2
First Quarter
Sep 8
Full
Sep 15
Last Quarter

Hourly Weather History & Observations

Time (PDT) Temp. Dew Point Humidity Pressure Visibility Wind Dir Wind Speed Gust Speed Precip Events Conditions
12:55 AM 57.0 °F 55.0 °F 93% 30.05 in 10.0 mi SW 4.6 mph - N/A   Overcast
1:55 AM 57.0 °F 55.0 °F 93% 30.04 in 10.0 mi SW 4.6 mph - N/A   Overcast
2:55 AM 57.0 °F 55.0 °F 93% 30.03 in 10.0 mi WSW 3.5 mph - N/A   Overcast
3:55 AM 57.0 °F 55.0 °F 93% 30.01 in 10.0 mi WNW 5.8 mph - N/A   Overcast
4:55 AM 57.0 °F 55.0 °F 93% 30.01 in 10.0 mi SW 4.6 mph - N/A   Overcast
5:55 AM 55.9 °F 55.0 °F 97% 30.00 in 10.0 mi Calm Calm - N/A   Overcast
6:55 AM 57.0 °F 54.0 °F 89% 30.00 in 10.0 mi SSE 3.5 mph - N/A   Overcast
7:38 AM 57.0 °F 55.9 °F 96% 30.00 in 10.0 mi SSE 3.5 mph - N/A   Overcast
7:55 AM 57.0 °F 55.9 °F 96% 30.00 in 9.0 mi Calm Calm - N/A   Overcast
8:55 AM 59.0 °F 57.0 °F 93% 30.00 in 9.0 mi Calm Calm - N/A   Overcast
9:35 AM 60.1 °F 57.0 °F 90% 29.99 in 9.0 mi Calm Calm - N/A   Overcast
9:55 AM 61.0 °F 57.9 °F 90% 29.98 in 10.0 mi West 3.5 mph - N/A   Overcast
10:55 AM 63.0 °F 59.0 °F 87% 29.98 in 10.0 mi NNW 6.9 mph - N/A   Mostly Cloudy
11:03 AM 63.0 °F 57.9 °F 84% 29.98 in 10.0 mi NNW 8.1 mph - N/A   Scattered Clouds
11:55 AM 68.0 °F 60.1 °F 76% 29.96 in 10.0 mi North 4.6 mph - N/A   Clear
12:55 PM 71.1 °F 60.1 °F 68% 29.95 in 10.0 mi West 8.1 mph - N/A   Clear
1:55 PM 73.0 °F 60.1 °F 64% 29.93 in 10.0 mi WNW 10.4 mph - N/A   Clear
2:55 PM 72.0 °F 59.0 °F 64% 29.92 in 10.0 mi WNW 10.4 mph - N/A   Clear
3:55 PM 72.0 °F 60.1 °F 66% 29.90 in 10.0 mi WNW 15.0 mph - N/A   Clear
4:55 PM 72.0 °F 60.1 °F 66% 29.89 in 10.0 mi NW 16.1 mph - N/A   Clear
5:55 PM 66.9 °F 57.9 °F 73% 29.89 in 10.0 mi WNW 12.7 mph - N/A   Clear
6:55 PM 64.0 °F 57.9 °F 80% 29.88 in 10.0 mi WNW 13.8 mph - N/A   Clear
7:55 PM 62.1 °F 57.0 °F 84% 29.87 in 10.0 mi West 15.0 mph - N/A   Clear
8:55 PM 60.8 °F 55.4 °F 82% 29.89 in 10.0 mi West 6.9 mph - N/A   Clear
9:55 PM 59.0 °F 55.9 °F 90% 29.88 in 10.0 mi SW 4.6 mph - N/A   Partly Cloudy
10:55 PM 57.0 °F 55.0 °F 93% 29.88 in 9.0 mi WSW 5.8 mph - N/A   Partly Cloudy
11:07 PM 57.9 °F 55.9 °F 93% 29.88 in 9.0 mi SW 4.6 mph - N/A   Mostly Cloudy
11:55 PM 59.0 °F 57.0 °F 93% 29.87 in 10.0 mi WNW 9.2 mph - N/A   Mostly Cloudy